{"data":{"norad_id":61778,"intl_designator":"2024-199AV","name":"SITRO-AIS 39","alt_names":[],"object_type":"PAYLOAD","status":"ACTIVE","operator":null,"country":"CIS","launch_date":"2024-11-04","launch_site_code":"VOSTO","launch_vehicle":null,"mission":null,"orbit_class":"UNKNOWN","rcs_meters":null,"size_class":null,"mass_kg":null,"dimensions":null,"purposes":[],"wikipedia_slug":null,"has_3d_model":false,"image_url":null,"decayed_at":null,"tle_current":{"epoch":"2026-09-22T22:21:58.787424Z","epoch_age_seconds":92666,"freshness":"FRESH","line1":"1 61778U 24199AV  26265.93193041  .00063301  00000+0  56628-3 0  9997","line2":"2 61778  97.2692 144.5352 0002101 276.6678  83.4345 15.68172346149684","mean_motion":15.68172346,"eccentricity":0.0002101,"inclination_deg":97.2692,"raan_deg":144.5352,"arg_perigee_deg":276.6678,"mean_anomaly_deg":83.4345,"bstar":0.00056628,"rev_number":14968,"period_min":91.82664161073,"perigee_km":362.71397224111,"apogee_km":365.54707305412,"semimajor_km":6742.2675226476,"source":"CELESTRAK","updated_at":"2026-09-23T09:00:21.036083Z"}}}